Pompano Beach, FL

11:13 AM EDT on August 28, 2016 (GMT -0400)
Pompano Beach

Weather History for KPMP - December, 2013

Change the Weather History Date:

Friday, December 20, 2013

  Actual Average Record
Temperature  
Mean Temperature 78 °F -  
Max Temperature 81 °F 78 °F 87 °F (1948)
Min Temperature 75 °F 61 °F 33 °F (1950)
Cooling Degree Days 13    
Growing Degree Days 28 (Base 50)    
Moisture  
Dew Point 66 °F    
Average Humidity 67    
Maximum Humidity 74    
Minimum Humidity 60    
Precipitation  
Precipitation 0.00 in - - ()
Sea Level Pressure  
Sea Level Pressure 30.16 in    
Wind  
Wind Speed 13 mph (ESE)    
Max Wind Speed 16 mph    
Max Gust Speed 23 mph    
Visibility 10 miles    
Events      
Averages and records for this station are not official NWS values.
T = Trace of Precipitation, MM = Missing Value Source: NWS Daily Summary

Daily Weather History Graph

Daily Weather History Graph

Search for Another Location

Airport or City:

Trip Planner

Search our weather history database for the weather conditions in past years. The results will help you decide how hot, cold, wet, or windy it might be!

Date:

Astronomy

Dec. 20, 2013 Rise Set
Actual Time 7:03 AM EST 5:33 PM EST
Civil Twilight 6:38 AM EST 5:58 PM EST
Nautical Twilight 6:09 AM EST 6:27 PM EST
Astronomical Twilight 5:40 AM EST 6:55 PM EST
Moon 8:36 PM EST (12/20) 9:10 AM EST (12/20)
Length of Visible Light 11h 20m
Length of Day
10h 29m
Waning Gibbous, 90% of the Moon is Illuminated
Dec 20
Waning Gibbous
Dec 25
Last Quarter
Jan 1
New
Jan 7
First Quarter
Jan 15
Full

Hourly Weather History & Observations

Time (EST) Temp. Heat Index Dew Point Humidity Pressure Visibility Wind Dir Wind Speed Gust Speed Precip Events Conditions
12:53 AM 75.0 °F - 62.1 °F 64% 30.17 in 10.0 mi East 10.4 mph - N/A   Scattered Clouds
1:53 AM 75.0 °F - 62.1 °F 64% 30.16 in 10.0 mi East 10.4 mph - N/A   Clear
2:53 AM 75.0 °F - 62.1 °F 64% 30.15 in 10.0 mi East 9.2 mph - N/A   Partly Cloudy
3:53 AM 75.0 °F - 62.1 °F 64% 30.14 in 10.0 mi East 12.7 mph - N/A   Clear
4:53 AM 75.0 °F - 64.0 °F 69% 30.14 in 10.0 mi East 12.7 mph 19.6 mph N/A   Mostly Cloudy
5:53 AM 75.0 °F - 64.0 °F 69% 30.15 in 10.0 mi East 12.7 mph - N/A   Scattered Clouds
6:53 AM 75.9 °F - 64.9 °F 69% 30.17 in 10.0 mi East 12.7 mph - N/A   Mostly Cloudy
7:53 AM 75.9 °F - 64.9 °F 69% 30.17 in 10.0 mi East 15.0 mph - N/A   Overcast
8:53 AM 77.0 °F - 64.9 °F 66% 30.18 in 10.0 mi East 15.0 mph 23.0 mph N/A   Mostly Cloudy
9:41 AM 77.0 °F - 66.2 °F 69% 30.19 in 10.0 mi East 16.1 mph - N/A   Mostly Cloudy
9:53 AM 77.0 °F - 66.0 °F 69% 30.20 in 10.0 mi ESE 13.8 mph - N/A   Mostly Cloudy
10:08 AM 78.8 °F - 66.2 °F 65% 30.19 in 10.0 mi ESE 15.0 mph - N/A   Mostly Cloudy
10:53 AM 80.1 °F 82.3 °F 66.9 °F 64% 30.20 in 10.0 mi East 15.0 mph - N/A   Scattered Clouds
11:53 AM 80.1 °F 82.3 °F 66.9 °F 64% 30.18 in 10.0 mi ESE 12.7 mph 20.7 mph N/A   Scattered Clouds
12:53 PM 81.0 °F 83.3 °F 66.9 °F 62% 30.16 in 10.0 mi ESE 13.8 mph 19.6 mph N/A   Scattered Clouds
1:53 PM 81.0 °F 83.3 °F 66.9 °F 62% 30.14 in 10.0 mi East 15.0 mph 19.6 mph N/A   Scattered Clouds
2:53 PM 81.0 °F 83.0 °F 66.0 °F 60% 30.13 in 10.0 mi East 13.8 mph 18.4 mph N/A   Scattered Clouds
3:53 PM 80.1 °F 81.9 °F 64.9 °F 60% 30.12 in 10.0 mi ESE 12.7 mph - N/A   Partly Cloudy
4:53 PM 79.0 °F - 66.9 °F 66% 30.13 in 10.0 mi ESE 9.2 mph - N/A   Scattered Clouds
5:53 PM 77.0 °F - 66.9 °F 71% 30.14 in 10.0 mi East 13.8 mph - N/A   Partly Cloudy
6:53 PM 78.1 °F - 66.9 °F 68% 30.14 in 10.0 mi East 13.8 mph - N/A   Scattered Clouds
7:53 PM 78.1 °F - 68.0 °F 71% 30.16 in 10.0 mi ESE 13.8 mph - N/A   Scattered Clouds
8:53 PM 77.0 °F - 66.9 °F 71% 30.18 in 10.0 mi ESE 12.7 mph - N/A   Mostly Cloudy
9:53 PM 77.0 °F - 66.9 °F 71% 30.18 in 10.0 mi ESE 13.8 mph - N/A   Clear
10:53 PM 77.0 °F - 68.0 °F 74% 30.17 in 10.0 mi East 15.0 mph - N/A   Clear
11:53 PM 77.0 °F - 68.0 °F 74% 30.17 in 10.0 mi East 15.0 mph 20.7 mph N/A   Partly Cloudy